Location: Senovod
(49.2426°N, 27.5055°E)
Time: 12:22:05
(UTC+00:00)

Daily predictions for brighter satellites

Satellite Brightness Start Highest point End
(mag) Time Altitude Azimuth Time Altitude Azimuth Time Altitude Azimuth
Cosmos 2279 Rocket 4.4 18:42:56 10° NNW 18:49:08 67° W 18:55:15 10° S
STARLINK-1244 4.5 18:45:35 10° W 18:49:40 54° N 18:53:45 10° ENE
Cosmos 304 Rocket 3.8 18:44:56 10° SSW 18:49:43 89° W 18:54:33 10° NNE
IGS 5A 3.9 18:47:15 10° SE 18:51:16 50° ENE 18:55:18 10° N
STARLINK-1245 4.4 18:48:40 10° WNW 18:52:44 51° N 18:56:48 10° E
USA 245 2.7 18:51:06 10° SSE 18:53:36 42° ENE 18:55:50 10° N
Resurs 01 Rocket 2.1 18:49:14 10° S 18:53:39 64° WSW 18:58:05 10° NNW
Cosmos 1461 3.9 18:49:48 10° SW 18:53:56 54° NW 18:58:18 10° NNE
STARLINK-1138 4.5 18:50:36 10° W 18:54:40 53° N 18:58:45 10° ENE
ATLAS CENTAUR R/B 3.3 18:53:46 10° SE 18:55:44 13° ESE 18:57:39 10° E
STARLINK-1233 4.4 18:53:38 10° WNW 18:57:42 52° N 19:01:46 10° E
Cosmos 1437 Rocket 3.2 18:54:18 10° SSW 18:58:04 63° WNW 19:01:55 10° N
Okean 2 4.4 18:54:47 10° SSE 18:58:25 30° E 19:02:05 10° NNE
SL-27 R/B 3.1 18:56:02 10° N 18:59:30 43° ENE 19:02:51 10° SE
STARLINK-1235 3.1 18:57:13 10° WNW 19:00:36 84° NNE 19:03:58 10° ESE
Cosmos 2082 Rocket 4.0 18:57:34 10° NW 19:02:18 27° WSW 19:07:00 10° SSW
Cosmos 2297 3.9 18:56:43 10° SSW 19:02:25 81° WNW 19:08:11 10° NNE
STARLINK-1204 4.4 18:58:38 10° WNW 19:02:43 53° N 19:06:47 10° E
NOSS 2-2 (C) 3.1 19:01:50 10° SW 19:05:24 88° SE 19:09:29 10° NE
STARLINK-1238 4.3 19:03:37 10° WNW 19:07:42 54° N 19:11:47 10° E
ATLAS 5 CENTAUR R/B 4.0 19:06:47 10° SSE 19:09:38 13° SE 19:11:35 10° ESE
Cosmos 2369 Rocket 2.6 19:05:25 10° S 19:10:44 44° ESE 19:16:04 10° NE
NOSS 3-2 (A) 4.2 19:03:28 10° NW 19:10:55 77° SW 19:19:19 10° SSE
ATLAS 2AS CENTAUR R/B 3.6 19:04:13 10° S 19:11:17 36° ESE 19:18:21 10° NE
STARLINK-1201 4.3 19:08:37 10° WNW 19:12:42 56° N 19:16:48 10° E
STARLINK-60 3.0 19:11:26 10° SW 19:14:32 53° SSE 19:17:39 10° ENE
MetOp-B 4.4 19:09:18 10° S 19:14:37 70° WSW 19:19:59 10° NNW
Cosmos 1766 3.3 19:12:09 10° N 19:16:09 75° E 19:20:08 10° SSE
Cosmos 1674 Rocket 4.3 19:12:33 10° SSW 19:16:52 55° WNW 19:21:15 10° N
Cosmos 1378 Rocket 3.9 19:12:47 10° SSW 19:17:09 71° W 19:21:32 10° N
Cosmos 1242 Rocket 3.9 19:14:45 11° SE 19:17:28 24° E 19:20:29 10° NE
STARLINK-1206 4.2 19:13:36 10° WNW 19:17:42 57° NNE 19:21:48 10° E
STARLINK-1205 4.2 19:18:35 10° WNW 19:22:41 59° NNE 19:26:48 10° E
ERS-1 Rocket 3.1 19:19:15 11° SSE 19:24:08 67° ENE 19:29:09 10° N
Cosmos 292 Rocket 4.3 19:20:01 10° S 19:24:33 41° ESE 19:29:07 10° NE
USA 238 DEB 4.1 19:18:10 10° NW 19:25:17 66° SW 19:32:17 12° SSE
USA 238 4.1 19:18:16 10° NW 19:25:23 66° SW 19:32:24 12° SSE
BREEZE-M DEB (TANK) 3.0 19:21:11 10° W 19:26:10 86° N 19:29:37 10° E
STARLINK-1218 4.1 19:23:35 10° WNW 19:27:42 61° NNE 19:31:49 10° E
STARLINK-1212 2.8 19:24:44 10° WNW 19:27:51 76° SSW 19:30:26 14° ESE
STARLINK-1105 2.8 19:25:14 10° WNW 19:28:21 75° SSW 19:30:53 14° ESE
STARLINK-1247 2.8 19:26:04 10° WNW 19:29:12 75° SSW 19:31:44 14° ESE
Cosmos 1867 3.8 19:23:56 10° NW 19:29:23 65° NE 19:34:21 12° SE
STARLINK-1227 2.8 19:26:33 10° WNW 19:29:40 74° SSW 19:32:11 15° ESE
STARLINK-1226 2.8 19:27:33 10° WNW 19:30:40 73° SSW 19:33:09 15° ESE
STARLINK-1215 2.8 19:28:20 10° WNW 19:31:28 72° SSW 19:33:55 15° SE
Cosmos 1092 Rocket 4.0 19:25:35 10° S 19:31:40 73° E 19:37:50 10° NNE
STARLINK-1229 2.7 19:29:35 10° WNW 19:32:35 70° SSW 19:34:51 16° SE
STARLINK-1254 4.0 19:28:33 10° WNW 19:32:40 63° NNE 19:36:48 10° E
STARLINK-1209 3.1 19:29:55 10° WNW 19:33:01 54° SSW 19:35:17 17° SE
STARLINK-1217 2.9 19:30:12 10° WNW 19:33:18 70° SSW 19:35:42 16° SE
STARLINK-1270 2.8 19:30:25 10° WNW 19:33:25 69° SSW 19:35:39 16° SE
Cosmos 968 Rocket 3.6 19:28:19 10° NNW 19:33:28 66° ENE 19:37:48 14° SE
STARLINK-1189 2.8 19:32:39 10° WNW 19:35:39 66° SSW 19:37:50 17° SE
EXPRESS MD2 3.5 19:32:38 10° WSW 19:35:54 86° SSE 19:42:20 10° E
STARLINK-1188 2.8 19:33:57 10° WNW 19:36:59 65° SSW 19:39:09 17° SE
STARLINK-1231 4.0 19:33:31 10° WNW 19:37:40 65° NNE 19:41:47 10° E
Landsat 7 4.3 19:33:05 10° S 19:37:47 59° W 19:42:30 10° NNW
STARLINK-1191 2.9 19:37:01 10° WNW 19:40:05 62° SSW 19:42:10 18° SE
STARLINK-1221 2.9 19:38:01 10° WNW 19:41:04 61° SSW 19:43:08 19° SE
Cosmos 1975 Rocket 3.0 19:37:30 10° S 19:41:55 76° E 19:46:19 10° NNE
STARLINK-1222 2.9 19:39:02 10° WNW 19:42:05 60° SSW 19:44:06 19° SE
STARLINK-1232 3.9 19:38:33 10° WNW 19:42:42 67° NNE 19:46:49 10° E
STARLINK-1214 3.0 19:40:10 10° WNW 19:43:13 59° SSW 19:45:12 19° SE
COSMOS 2455 3.7 19:38:19 11° SSE 19:43:15 31° ESE 19:48:26 10° NE
STARLINK-1444 1.7 19:41:25 10° SW 19:43:23 57° SSE 19:45:23 10° ENE
STARLINK-1452 1.6 19:41:34 10° SW 19:43:31 57° SSE 19:45:28 10° ENE
Cosmos 1025 Rocket 4.1 19:40:55 16° SE 19:43:35 28° E 19:47:19 10° NNE
STARLINK-1436 (VISORSAT) 1.6 19:43:12 10° SW 19:45:09 60° SSE 19:47:08 10° ENE
STARLINK-1450 1.6 19:43:17 10° SW 19:45:13 60° SSE 19:47:13 10° ENE
STARLINK-1399 1.6 19:43:22 10° SW 19:45:19 60° SSE 19:47:18 10° ENE
STARLINK-1398 1.6 19:43:22 10° SW 19:45:19 60° SSE 19:47:18 10° ENE
STARLINK-1392 1.6 19:43:22 10° SW 19:45:19 60° SSE 19:47:18 10° ENE
STARLINK-1393 1.6 19:43:23 10° SW 19:45:20 60° SSE 19:47:19 10° ENE
STARLINK-1395 1.6 19:43:23 10° SW 19:45:20 60° SSE 19:47:19 10° ENE
STARLINK-1394 1.6 19:43:23 10° SW 19:45:20 60° SSE 19:47:19 10° ENE
STARLINK-1415 1.6 19:43:23 10° SW 19:45:20 60° SSE 19:47:19 10° ENE
STARLINK-1414 1.6 19:43:23 10° SW 19:45:20 60° SSE 19:47:19 10° ENE
STARLINK-1396 1.6 19:43:24 10° SW 19:45:21 60° SSE 19:47:20 10° ENE
STARLINK-1397 1.6 19:43:24 10° SW 19:45:21 60° SSE 19:47:20 10° ENE
STARLINK-1416 1.6 19:43:24 10° SW 19:45:21 60° SSE 19:47:20 10° ENE
STARLINK-1404 1.6 19:43:24 10° SW 19:45:21 60° SSE 19:47:20 10° ENE
STARLINK-1401 1.6 19:43:24 10° SW 19:45:21 60° SSE 19:47:21 10° ENE
STARLINK-1419 1.6 19:43:25 10° SW 19:45:22 60° SSE 19:47:21 10° ENE
STARLINK-1408 1.6 19:43:25 10° SW 19:45:22 60° SSE 19:47:21 10° ENE
STARLINK-1453 1.6 19:43:26 10° SW 19:45:23 60° SSE 19:47:22 10° ENE
STARLINK-1417 1.6 19:43:26 10° SW 19:45:23 60° SSE 19:47:22 10° ENE
STARLINK-1402 1.6 19:43:26 10° SW 19:45:23 60° SSE 19:47:22 10° ENE
STARLINK-1437 1.6 19:43:26 10° SW 19:45:23 60° SSE 19:47:22 10° ENE
STARLINK-1420 1.6 19:43:27 10° SW 19:45:24 60° SSE 19:47:23 10° ENE
STARLINK-1413 1.6 19:43:27 10° SW 19:45:25 60° SSE 19:47:24 10° ENE
STARLINK-1406 1.6 19:43:27 10° SW 19:45:25 60° SSE 19:47:24 10° ENE
STARLINK-1458 1.6 19:43:28 10° SW 19:45:25 60° SSE 19:47:24 10° ENE
STARLINK-1460 1.6 19:43:28 10° SW 19:45:25 60° SSE 19:47:25 10° ENE
STARLINK-1422 1.6 19:43:28 10° SW 19:45:25 60° SSE 19:47:25 10° ENE
STARLINK-1440 1.6 19:43:29 10° SW 19:45:26 60° SSE 19:47:25 10° ENE
STARLINK-1445 1.6 19:43:29 10° SW 19:45:26 60° SSE 19:47:26 10° ENE
STARLINK-1443 1.6 19:43:30 10° SW 19:45:27 60° SSE 19:47:27 10° ENE
STARLINK-1446 1.6 19:43:31 10° SW 19:45:28 60° SSE 19:47:27 10° ENE
STARLINK-1454 1.6 19:43:31 10° SW 19:45:28 60° SSE 19:47:27 10° ENE
STARLINK-1457 1.6 19:43:32 10° SW 19:45:28 60° SSE 19:47:28 10° ENE
STARLINK-1456 1.6 19:43:32 10° SW 19:45:28 60° SSE 19:47:28 10° ENE
STARLINK-1451 1.6 19:43:32 10° SW 19:45:29 60° SSE 19:47:28 10° ENE
STARLINK-1447 1.6 19:43:33 10° SW 19:45:30 60° SSE 19:47:29 10° ENE
STARLINK-1441 1.6 19:43:34 10° SW 19:45:31 60° SSE 19:47:30 10° ENE
STARLINK-1455 1.6 19:43:33 10° SW 19:45:31 60° SSE 19:47:29 10° ENE
STARLINK-1442 1.6 19:43:33 10° SW 19:45:31 60° SSE 19:47:30 10° ENE
STARLINK-1449 1.6 19:43:34 10° SW 19:45:31 60° SSE 19:47:30 10° ENE
STARLINK-1448 1.6 19:43:34 10° SW 19:45:31 60° SSE 19:47:30 10° ENE
STARLINK-1405 1.6 19:43:35 10° SW 19:45:32 60° SSE 19:47:32 10° ENE
STARLINK-1423 1.6 19:43:35 10° SW 19:45:32 60° SSE 19:47:32 10° ENE
STARLINK-1421 1.6 19:43:35 10° SW 19:45:32 60° SSE 19:47:32 10° ENE
STARLINK-1410 1.6 19:43:36 10° SW 19:45:33 60° SSE 19:47:32 10° ENE
STARLINK-1407 1.6 19:43:36 10° SW 19:45:33 60° SSE 19:47:32 10° ENE
STARLINK-1400 1.6 19:43:36 10° SW 19:45:33 60° SSE 19:47:32 10° ENE
STARLINK-1439 1.6 19:43:37 10° SW 19:45:34 60° SSE 19:47:33 10° ENE
STARLINK-1351 1.6 19:43:37 10° SW 19:45:34 60° SSE 19:47:34 10° ENE
STARLINK-1409 1.6 19:43:37 10° SW 19:45:34 60° SSE 19:47:34 10° ENE
STARLINK-1370 1.6 19:43:38 10° SW 19:45:35 60° SSE 19:47:35 10° ENE
STARLINK-1418 1.6 19:43:38 10° SW 19:45:35 60° SSE 19:47:35 10° ENE
STARLINK-1434 1.6 19:43:38 10° SW 19:45:35 60° SSE 19:47:34 10° ENE
STARLINK-1403 1.6 19:43:39 10° SW 19:45:36 61° SSE 19:47:35 10° ENE
STARLINK-1433 1.6 19:43:39 10° SW 19:45:37 61° SSE 19:47:35 10° ENE
STARLINK-1438 1.6 19:43:41 10° SW 19:45:38 61° SSE 19:47:37 10° ENE
STARLINK-1412 1.6 19:43:41 10° SW 19:45:38 61° SSE 19:47:37 10° ENE
STARLINK-1411 1.6 19:43:41 10° SW 19:45:38 61° SSE 19:47:37 10° ENE
STARLINK-1234 3.5 19:42:42 10° WNW 19:46:04 49° SSW 19:48:15 19° SE
STARLINK-29 3.0 19:43:21 10° SW 19:46:29 50° SSE 19:49:38 10° ENE
STARLINK-1228 3.6 19:43:15 10° WNW 19:46:43 49° SSW 19:48:59 19° SE
STARLINK-1208 3.9 19:43:30 10° WNW 19:47:38 70° NNE 19:51:47 10° ESE
Cosmos 1805 4.4 19:46:08 10° NNW 19:49:49 39° W 19:53:29 10° SSW
Cosmos 1378 4.2 19:46:31 10° SSW 19:50:06 44° WNW 19:53:40 10° N
STARLINK-1271 3.8 19:48:30 10° WNW 19:52:39 73° NNE 19:56:44 10° ESE
Cosmos 1470 2.8 19:51:04 10° N 19:54:56 63° ENE 19:57:29 20° SSE
STARLINK-1187 3.5 19:53:42 10° WNW 19:56:48 43° SSW 19:58:23 23° SSE
STARLINK-1154 3.7 19:53:28 10° WNW 19:57:38 76° NNE 20:01:30 12° ESE
BREEZE-M DEB (TANK) 4.0 19:54:54 10° SW 19:58:17 46° SE 20:08:36 10° ENE
Cosmos 1340 Rocket 4.0 19:56:29 10° N 20:00:10 32° ENE 20:02:37 17° ESE
Cosmos 1726 3.4 19:57:22 10° N 20:00:40 29° ENE 20:02:43 18° ESE
STARLINK-1197 3.7 19:58:26 10° WNW 20:02:36 80° NNE 20:06:17 13° ESE
CENTAUR R/B 3.4 19:55:45 10° NW 20:03:43 68° SW 20:10:45 17° SSE
Cosmos 1733 4.3 20:01:20 10° NNW 20:04:53 38° W 20:08:10 11° SSW
USA 215 4.2 19:58:48 10° E 20:05:01 48° N 20:11:15 10° WNW
Meteor 2-13 Rocket 4.5 20:00:31 10° S 20:06:41 86° E 20:12:53 10° N
Meteor 2-10 4.3 20:02:09 10° N 20:07:06 53° ENE 20:10:30 20° SE
STARLINK-1320 4.0 20:07:37 24° SE 20:07:37 24° SE 20:09:46 10° E
S3M 4.3 20:01:04 10° N 20:07:10 57° ENE 20:11:42 19° SSE
STARLINK-1322 4.0 20:07:55 24° SE 20:07:55 24° SE 20:10:05 10° E
STARLINK-1350 4.5 20:06:01 20° S 20:07:33 25° SE 20:10:51 10° E
STARLINK-1198 3.6 20:03:26 10° WNW 20:07:36 83° NNE 20:11:04 15° ESE
STARLINK-1324 4.0 20:08:17 24° SE 20:08:17 24° SE 20:10:28 10° E
Lacrosse 4 Rocket 4.3 20:06:26 10° N 20:07:50 11° NNE 20:09:14 10° NE
STARLINK-1294 4.0 20:08:36 24° SE 20:08:36 24° SE 20:10:45 10° E
Cosmos 1842 3.6 20:04:34 10° SSW 20:08:26 62° W 20:12:18 10° N
STARLINK-1261 4.0 20:08:55 25° SE 20:08:55 25° SE 20:11:08 10° E
STARLINK-1325 4.0 20:09:14 25° SE 20:09:14 25° SE 20:11:28 10° E
STARLINK-1333 4.0 20:09:35 25° SE 20:09:35 25° SE 20:11:50 10° E
Cosmos 1455 Rocket 3.4 20:04:56 10° NNW 20:09:12 59° W 20:12:34 16° S
STARLINK-1334 4.0 20:09:55 25° SE 20:09:55 25° SE 20:12:10 10° E
Cosmos 2263 4.1 20:04:04 10° SSW 20:09:41 85° ESE 20:15:20 10° NNE
STARLINK-1326 3.9 20:10:15 25° SE 20:10:15 25° SE 20:12:31 10° E
RESURS DK-1 3.9 20:09:14 18° ESE 20:10:08 20° ESE 20:13:08 10° ENE
STARLINK-1323 3.9 20:10:33 26° SE 20:10:33 26° SE 20:12:50 10° E
STARLINK-1349 3.9 20:10:52 26° SE 20:10:52 26° SE 20:13:10 10° E
STARLINK-1336 3.9 20:11:12 26° SE 20:11:12 26° SE 20:13:31 10° E
Cosmos 2026 Rocket 4.1 20:04:44 10° SSW 20:11:03 81° W 20:17:29 10° N
STARLINK-1331 3.9 20:11:32 26° SE 20:11:32 26° SE 20:13:52 10° E
ATLAS 3B R/B 2.8 20:04:21 10° NW 20:11:10 80° NE 20:16:50 17° SE
STARLINK-1344 3.9 20:11:50 26° SE 20:11:50 26° SE 20:14:12 10° E
STARLINK-1352 4.4 20:10:01 20° S 20:11:43 27° SE 20:15:05 10° E
BREEZE M DEB (TANK) 1.9 20:07:56 10° WSW 20:11:48 84° SSE 20:13:54 10° E
STARLINK-1343 3.9 20:12:10 27° SE 20:12:10 27° SE 20:14:32 10° E
STARLINK-1346 3.8 20:12:23 27° SE 20:12:23 27° SE 20:14:53 10° E
STARLINK-1328 3.8 20:12:49 27° SE 20:12:49 27° SE 20:15:12 10° E
STARLINK-1199 3.6 20:08:24 10° WNW 20:12:34 87° NNE 20:15:50 16° ESE
Cosmos 1503 Rocket 4.1 20:07:23 10° NNW 20:12:44 84° WSW 20:16:29 20° SSE
STARLINK-1354 3.8 20:13:10 27° SE 20:13:10 27° SE 20:15:34 10° E
STARLINK-1347 3.8 20:13:28 27° SE 20:13:28 27° SE 20:15:54 10° E
STARLINK-1357 3.8 20:13:49 28° SE 20:13:49 28° SE 20:16:16 10° E
STARLINK-1335 3.8 20:14:06 28° SE 20:14:06 28° SE 20:16:33 10° E
SPOT 5 3.6 20:09:28 14° S 20:13:56 56° W 20:19:14 10° NNW
Cosmos 1953 2.8 20:10:18 10° N 20:14:10 46° ENE 20:16:18 23° SE
STARLINK-1327 3.8 20:14:29 28° SE 20:14:29 28° SE 20:16:56 10° E
STARLINK-1340 3.8 20:14:49 28° SE 20:14:49 28° SE 20:17:17 10° E
STARLINK-1269 4.4 20:10:38 10° WNW 20:14:41 52° N 20:18:45 10° E
STARLINK-1356 3.8 20:15:07 28° SE 20:15:07 28° SE 20:17:38 10° E
STARLINK-1345 3.7 20:15:27 29° SE 20:15:27 29° SE 20:17:58 10° E
STARLINK-1355 3.7 20:15:45 29° SE 20:15:45 29° SE 20:18:17 10° E
STARLINK-1321 3.7 20:16:04 29° SE 20:16:04 29° SE 20:18:37 10° E
STARLINK-1368 4.3 20:14:01 20° S 20:15:53 29° SE 20:19:20 10° E
STARLINK-1358 3.7 20:16:25 29° SE 20:16:25 29° SE 20:19:00 10° E
STARLINK-1332 3.7 20:16:43 29° SE 20:16:43 29° SE 20:19:18 10° E
STARLINK-1348 3.7 20:17:03 29° SE 20:17:03 29° SE 20:19:38 10° E
STARLINK-1330 3.7 20:17:23 30° SE 20:17:23 30° SE 20:19:59 10° E
STARLINK-1363 3.7 20:17:42 30° SE 20:17:42 30° SE 20:20:19 10° E
STARLINK-1210 3.6 20:13:23 10° WNW 20:17:33 89° SSW 20:20:37 18° ESE
STARLINK-1337 3.6 20:18:02 30° SE 20:18:02 30° SE 20:20:40 10° E
STARLINK-1342 3.6 20:18:22 30° SE 20:18:22 30° SE 20:21:02 10° E
Cosmos 1553 Rocket 4.0 20:12:01 10° N 20:18:20 89° E 20:22:57 19° S
STARLINK-1364 3.6 20:18:42 30° SE 20:18:42 30° SE 20:21:22 10° E
Cosmos 2297 Rocket 4.0 20:14:03 10° N 20:18:35 24° NE 20:23:07 10° E
STARLINK-1376 3.6 20:19:01 31° SE 20:19:01 31° SE 20:21:42 10° E
STARLINK-1360 3.6 20:19:20 31° SE 20:19:20 31° SE 20:22:03 10° E
STARLINK-1361 3.6 20:19:41 31° SE 20:19:41 31° SE 20:22:23 10° E
STARLINK-1200 4.4 20:15:37 10° WNW 20:19:41 53° N 20:23:45 10° E
STARLINK-1367 3.6 20:19:55 31° SE 20:19:55 31° SE 20:22:44 10° E
STARLINK-1369 4.2 20:18:01 19° S 20:20:04 31° SE 20:23:35 10° ENE
STARLINK-1366 3.6 20:20:19 31° SE 20:20:19 31° SE 20:23:04 10° E
STARLINK-52 2.8 20:18:42 10° WSW 20:21:55 81° SSE 20:25:08 10° ENE
STARLINK-1219 3.5 20:18:23 10° WNW 20:22:33 85° SSW 20:25:25 19° ESE
Terra 2.2 20:19:29 18° S 20:22:57 59° W 20:27:41 10° NNW
Cosmos 1943 Rocket 3.3 20:17:52 10° SW 20:23:12 45° NW 20:28:36 10° NNE
Cosmos 1271 Rocket 2.7 20:21:11 19° SSW 20:23:57 87° WNW 20:27:57 10° N
STARLINK-1372 4.1 20:22:01 19° SSW 20:24:15 33° SE 20:27:50 10° ENE
Aureole 3 4.0 20:21:55 10° NNE 20:24:36 27° ENE 20:25:35 22° ESE
SL-4 R/B 2.4 20:19:51 10° WSW 20:24:39 88° NNW 20:29:32 10° ENE
STARLINK-1192 4.3 20:20:36 10° WNW 20:24:41 54° N 20:28:46 10° E
Cosmos 1833 4.5 20:19:59 10° NW 20:25:32 59° WSW 20:29:19 21° S
SJ 16-02 3.9 20:24:44 10° NNE 20:26:39 12° NE 20:28:34 10° ENE
STARLINK-1378 4.1 20:25:15 20° SSW 20:27:18 34° SE 20:30:52 10° ENE
STARLINK-1211 3.5 20:23:22 10° WNW 20:27:32 80° SSW 20:30:12 21° ESE
Cosmos 1174 3.4 20:26:49 22° SSW 20:28:44 63° ESE 20:32:33 10° NE
STARLINK-1244 4.3 20:25:35 10° WNW 20:29:40 55° N 20:33:45 10° E
SeaSat 1 3.7 20:25:59 10° NE 20:29:53 23° ESE 20:31:18 20° SE
STARLINK-1379 4.0 20:28:42 20° SSW 20:30:45 36° SE 20:34:21 10° ENE
OE (NEXTSAT) 4.5 20:28:04 10° WSW 20:31:29 50° S 20:33:20 23° ESE
Cosmos 1758 3.7 20:28:15 10° NNW 20:32:16 58° W 20:34:43 22° SSW
STARLINK-1245 3.5 20:28:21 10° WNW 20:32:30 76° SSW 20:34:59 23° SE
NOSS 3-4 (A) 3.4 20:27:37 10° SW 20:33:35 85° SE 20:40:00 10° NE
NOSS 3-4 (C) 3.4 20:27:43 10° SW 20:33:41 84° SE 20:40:07 10° NE
STARLINK-1329 3.9 20:31:47 20° SSW 20:33:58 37° SE 20:37:36 10° ENE
ATLAS CENTAUR R/B 1.3 20:29:43 10° SW 20:34:06 88° SE 20:38:12 10° NE
FALCON 9 DEB 3.0 20:30:53 10° SW 20:34:17 70° SSE 20:37:44 10° ENE
Cosmos 1354 Rocket 4.2 20:29:15 10° NNW 20:34:30 64° WSW 20:37:51 23° S
STARLINK-1138 4.2 20:30:34 10° WNW 20:34:39 57° NNE 20:38:45 10° E
Cosmos 1707 2.7 20:33:07 23° S 20:35:28 86° W 20:39:22 10° N
STARLINK-1233 3.5 20:33:19 10° WNW 20:37:28 72° SSW 20:39:44 25° SE
SL-4 R/B 3.2 20:37:50 12° ENE 20:38:00 12° ENE 20:38:54 10° NE
COSMOS 2487 2.5 20:35:26 10° NNW 20:38:54 68° WSW 20:40:15 33° S
STARLINK-1362 3.8 20:36:30 18° SSW 20:39:05 41° SE 20:42:47 10° ENE
STARLINK-1143 4.2 20:35:33 10° WNW 20:39:40 58° NNE 20:43:46 10° E
Cosmos 1536 Rocket 3.5 20:39:07 22° S 20:41:53 86° WNW 20:46:18 10° N
STARLINK-1204 3.6 20:38:18 10° WNW 20:42:26 67° SSW 20:44:32 27° SE
Meteor 1-16 Rocket 4.1 20:37:26 10° N 20:42:57 77° ENE 20:46:06 25° SSE
STARLINK-1373 3.7 20:40:38 17° SSW 20:43:22 43° SE 20:47:08 10° ENE
Cosmos 2266 Rocket 4.0 20:39:32 22° SSE 20:43:24 62° E 20:49:22 10° NNE
EO 1 Del DPAF 3.6 20:39:51 10° NNE 20:43:31 47° E 20:44:51 32° SSE
Cosmos 1656 Rocket 3.8 20:38:49 10° SSW 20:44:26 75° WNW 20:50:01 10° NNE
STARLINK-1241 4.1 20:40:34 10° WNW 20:44:40 60° NNE 20:48:47 10° E
Cosmos 1655 Rocket 4.0 20:40:25 19° S 20:45:02 85° E 20:51:22 10° N
STARLINK-1390 3.7 20:43:55 18° SSW 20:46:28 45° SE 20:50:11 10° ENE
Cosmos 1992 Rocket 4.3 20:41:27 10° SSW 20:46:37 66° WNW 20:51:50 10° NNE
STARLINK-1238 3.6 20:43:17 10° WNW 20:47:24 63° SSW 20:49:19 29° SE
STARLINK-1239 4.1 20:45:32 10° WNW 20:49:40 62° NNE 20:53:46 10° E
STARLINK-60 4.0 20:47:36 10° W 20:50:41 47° NNW 20:53:46 10° ENE
STARLINK-1365 3.6 20:47:47 12° SW 20:51:18 50° SSE 20:55:10 10° ENE
Cosmos 2084 3.7 20:49:43 25° S 20:52:00 51° SE 20:56:21 10° NE
Cosmos 1242 Rocket 4.4 20:49:02 10° SW 20:52:14 28° WNW 20:55:29 10° N
STARLINK-1201 3.7 20:48:17 10° WNW 20:52:22 59° SSW 20:54:05 32° SE
STARLINK-1240 4.0 20:50:30 10° WNW 20:54:38 64° NNE 20:58:45 10° E
Cosmos 2369 Rocket 3.6 20:49:36 10° WSW 20:54:51 38° NW 21:00:07 10° NNE
BREEZE-M DEB 3.5 20:52:15 10° W 20:55:26 88° SSE 21:05:50 10° E
Cosmos 2227 Rocket 3.5 20:51:22 10° NNW 20:56:34 34° NE 21:01:30 11° ESE
STARLINK-1206 3.7 20:53:16 10° WNW 20:57:20 55° SSW 20:58:52 34° SSE
ERBS 4.2 20:56:06 10° NW 20:59:05 29° NNE 21:02:03 10° E
STARLINK-1216 3.9 20:55:30 10° WNW 20:59:39 66° NNE 21:03:45 10° E
Cosmos 2292 Rocket 2.7 21:00:47 43° S 21:01:44 78° E 21:04:45 10° NNE
ATLAS 2AS CENTAUR R/B 3.3 20:53:54 10° SW 21:01:54 73° NW 21:09:49 10° NE
STARLINK-1205 3.8 20:58:15 10° WNW 21:02:17 52° SSW 21:03:39 35° SSE
Cosmos 883 Rocket 4.4 20:57:52 10° N 21:04:03 89° ENE 21:07:43 26° S
STARLINK-1237 3.9 21:00:28 10° WNW 21:04:37 69° NNE 21:08:31 11° ESE
Spot 4 3.8 21:03:16 29° SSE 21:05:46 85° WSW 21:10:38 10° NNW
STARLINK-1338 3.3 21:03:39 15° SW 21:06:41 60° SSE 21:10:25 10° ENE
STARLINK-1218 3.9 21:03:16 10° WNW 21:07:16 48° SW 21:08:27 36° SSE
BREEZE-M R/B 4.3 20:59:16 10° SW 21:08:23 45° SSE 21:12:51 10° E
STARLINK-1202 3.8 21:05:27 10° WNW 21:09:35 72° NNE 21:13:17 13° ESE
Cosmos 2098 Rocket 4.4 21:05:28 24° S 21:10:15 72° E 21:17:36 10° NNE
Cosmos 2058 Rocket 3.9 21:07:14 10° N 21:11:30 42° ENE 21:13:34 26° SE
Meteor 2-5 Rocket 4.1 21:09:22 27° SSE 21:12:07 51° E 21:17:36 10° NNE
STARLINK-1254 4.0 21:08:15 10° WNW 21:12:13 45° SW 21:13:13 37° S
STARLINK-1203 3.8 21:08:20 10° WNW 21:12:33 74° NNE 21:16:15 13° ESE
Cosmos 1606 Rocket 3.5 21:08:18 10° N 21:12:40 80° ENE 21:14:30 34° SSE
Cosmos 1908 3.1 21:09:29 10° N 21:13:19 89° E 21:14:38 40° S
CZ-4C R/B 3.6 21:14:27 17° ESE 21:15:18 18° ESE 21:18:54 10° ENE
STARLINK-1371 3.3 21:12:08 11° SW 21:15:51 69° SSE 21:19:42 10° ENE
STARLINK-1231 4.1 21:13:14 10° WNW 21:17:09 42° SW 21:17:59 37° S
STARLINK-1444 4.0 21:15:23 10° WNW 21:17:13 29° N 21:19:07 10° ENE
STARLINK-1452 4.0 21:15:26 10° WNW 21:17:14 28° N 21:19:05 10° ENE
ALOS 2 2.7 21:16:21 31° SE 21:18:19 66° ENE 21:22:41 10° N
STARLINK-1436 (VISORSAT) 4.0 21:17:10 10° WNW 21:18:59 28° N 21:20:50 10° ENE
STARLINK-1450 4.0 21:17:16 10° WNW 21:19:04 28° N 21:20:56 10° ENE
STARLINK-1392 4.0 21:17:21 10° WNW 21:19:10 28° N 21:21:02 10° ENE
STARLINK-1398 4.0 21:17:21 10° WNW 21:19:10 28° N 21:21:02 10° ENE
STARLINK-1399 4.0 21:17:21 10° WNW 21:19:10 28° N 21:21:02 10° ENE
STARLINK-1393 4.0 21:17:22 10° WNW 21:19:11 28° N 21:21:03 10° ENE
STARLINK-1395 4.0 21:17:22 10° WNW 21:19:11 28° N 21:21:03 10° ENE
STARLINK-1394 4.0 21:17:23 10° WNW 21:19:11 28° N 21:21:04 10° ENE
STARLINK-1415 4.0 21:17:23 10° WNW 21:19:11 28° N 21:21:03 10° ENE
STARLINK-1414 4.0 21:17:23 10° WNW 21:19:11 28° N 21:21:04 10° ENE
STARLINK-1396 4.0 21:17:23 10° WNW 21:19:12 28° N 21:21:04 10° ENE
STARLINK-1397 4.0 21:17:23 10° WNW 21:19:12 28° N 21:21:04 10° ENE
STARLINK-1416 4.0 21:17:24 10° WNW 21:19:12 28° N 21:21:05 10° ENE
STARLINK-1404 4.0 21:17:24 10° WNW 21:19:12 28° N 21:21:05 10° ENE
STARLINK-1401 4.0 21:17:24 10° WNW 21:19:12 28° N 21:21:05 10° ENE
STARLINK-1419 4.0 21:17:24 10° WNW 21:19:13 28° N 21:21:05 10° ENE
STARLINK-1408 4.0 21:17:25 10° WNW 21:19:14 28° N 21:21:06 10° ENE
STARLINK-1453 4.0 21:17:25 10° WNW 21:19:14 28° N 21:21:06 10° ENE
STARLINK-1437 4.0 21:17:25 10° WNW 21:19:15 28° N 21:21:06 10° ENE
STARLINK-1417 4.0 21:17:26 10° WNW 21:19:15 28° N 21:21:07 10° ENE
STARLINK-1402 4.0 21:17:26 10° WNW 21:19:15 28° N 21:21:07 10° ENE
STARLINK-1420 4.0 21:17:26 10° WNW 21:19:15 28° N 21:21:07 10° ENE
STARLINK-1413 4.0 21:17:27 10° WNW 21:19:16 28° N 21:21:08 10° ENE
STARLINK-1458 4.0 21:17:27 10° WNW 21:19:16 28° N 21:21:08 10° ENE
STARLINK-1406 4.0 21:17:27 10° WNW 21:19:16 28° N 21:21:08 10° ENE
STARLINK-1460 4.0 21:17:28 10° WNW 21:19:16 28° N 21:21:09 10° ENE
STARLINK-1422 4.0 21:17:28 10° WNW 21:19:17 28° N 21:21:09 10° ENE
STARLINK-1440 4.0 21:17:29 10° WNW 21:19:17 28° N 21:21:10 10° ENE
STARLINK-1445 4.0 21:17:29 10° WNW 21:19:18 28° N 21:21:10 10° ENE
STARLINK-1443 4.0 21:17:31 10° WNW 21:19:19 28° N 21:21:11 10° ENE
STARLINK-1446 4.0 21:17:31 10° WNW 21:19:19 28° N 21:21:12 10° ENE
STARLINK-1454 4.0 21:17:31 10° WNW 21:19:20 28° N 21:21:12 10° ENE
STARLINK-1457 4.0 21:17:32 10° WNW 21:19:20 28° N 21:21:13 10° ENE
STARLINK-1456 4.0 21:17:32 10° WNW 21:19:20 28° N 21:21:13 10° ENE
STARLINK-1451 4.0 21:17:32 10° WNW 21:19:21 28° N 21:21:13 10° ENE
STARLINK-1447 4.0 21:17:32 10° WNW 21:19:21 28° N 21:21:14 10° ENE
STARLINK-1455 4.0 21:17:33 10° WNW 21:19:22 28° N 21:21:14 10° ENE
STARLINK-1442 4.0 21:17:33 10° WNW 21:19:22 28° N 21:21:14 10° ENE
STARLINK-1449 4.0 21:17:33 10° WNW 21:19:22 28° N 21:21:15 10° ENE
STARLINK-1448 4.0 21:17:33 10° WNW 21:19:22 28° N 21:21:14 10° ENE
STARLINK-1441 4.0 21:17:34 10° WNW 21:19:23 28° N 21:21:14 10° ENE
STARLINK-1405 4.0 21:17:35 10° WNW 21:19:24 28° N 21:21:15 10° ENE
STARLINK-1423 4.0 21:17:35 10° WNW 21:19:24 28° N 21:21:15 10° ENE
STARLINK-1421 4.0 21:17:35 10° WNW 21:19:24 28° N 21:21:15 10° ENE
STARLINK-1410 4.0 21:17:35 10° WNW 21:19:25 28° N 21:21:16 10° ENE
STARLINK-1407 4.0 21:17:35 10° WNW 21:19:25 28° N 21:21:16 10° ENE
STARLINK-1439 4.0 21:17:36 10° WNW 21:19:25 28° N 21:21:17 10° ENE
STARLINK-1400 4.0 21:17:36 10° WNW 21:19:25 28° N 21:21:16 10° ENE
STARLINK-1409 4.0 21:17:37 10° WNW 21:19:26 28° N 21:21:18 10° ENE
STARLINK-1351 4.0 21:17:37 10° WNW 21:19:26 28° N 21:21:18 10° ENE
STARLINK-1434 4.0 21:17:38 10° WNW 21:19:27 28° N 21:21:18 10° ENE
STARLINK-1418 4.0 21:17:38 10° WNW 21:19:27 28° N 21:21:18 10° ENE
STARLINK-1370 4.0 21:17:38 10° WNW 21:19:27 28° N 21:21:18 10° ENE
STARLINK-1403 4.0 21:17:39 10° WNW 21:19:28 28° N 21:21:19 10° ENE
STARLINK-1433 4.0 21:17:39 10° WNW 21:19:29 28° N 21:21:20 10° ENE
STARLINK-1438 4.0 21:17:42 10° WNW 21:19:30 28° N 21:21:22 10° ENE
STARLINK-1412 4.0 21:17:42 10° WNW 21:19:30 28° N 21:21:22 10° ENE
STARLINK-1411 4.0 21:17:41 10° WNW 21:19:31 28° N 21:21:21 10° ENE
STARLINK-1246 3.7 21:15:26 10° WNW 21:19:35 78° NNE 21:22:52 16° ESE
STARLINK-1341 3.3 21:16:02 10° SW 21:19:52 73° SSE 21:23:44 10° ENE
In-Cosmos 22 4.3 21:17:57 21° SSW 21:21:26 66° WNW 21:26:43 10° N
STARLINK-1232 4.2 21:18:16 10° WNW 21:22:09 39° SW 21:22:48 36° SSW
KORONAS-FOTON 3.7 21:21:08 39° S 21:22:28 88° ESE 21:26:23 10° N
STARLINK-29 3.9 21:19:32 10° W 21:22:40 48° NNW 21:25:48 10° ENE
STARLINK-1374 3.3 21:19:57 10° WSW 21:23:48 76° SSE 21:27:39 10° ENE
STARLINK-1224 3.6 21:20:25 10° WNW 21:24:35 82° NNE 21:27:39 18° ESE
Nimbus 7 Rocket 4.5 21:19:26 10° NNE 21:25:31 68° ESE 21:28:51 28° S
STARLINK-1208 4.2 21:23:15 10° WNW 21:27:04 36° SW 21:27:33 35° SSW
STARLINK-1339 3.3 21:23:56 10° WSW 21:27:47 80° SSE 21:31:39 10° ENE
Cosmos 1300 3.4 21:25:08 10° N 21:28:49 44° ENE 21:30:06 31° SE
COSMOS 2455 3.4 21:22:55 10° SW 21:28:52 60° NW 21:34:52 10° NNE
STARLINK-1225 3.6 21:25:24 10° WNW 21:29:34 86° NNE 21:32:26 19° ESE
BREEZE-M DEB (TANK) 2.7 21:22:58 10° W 21:31:46 87° N 21:34:39 10° E
STARLINK-1271 4.3 21:28:17 10° WNW 21:32:03 34° SW 21:32:21 33° SSW
STARLINK-1377 3.3 21:29:48 10° WSW 21:33:44 86° SSE 21:37:42 10° ENE
Cosmos 1777 Rocket 4.4 21:28:54 10° NNW 21:34:00 53° WSW 21:36:21 30° SSW
ATLAS CENTAUR R/B 1.6 21:32:05 10° NW 21:34:05 48° NNE 21:35:43 22° E
STARLINK-1230 3.5 21:30:22 10° WNW 21:34:31 90° N 21:37:12 21° ESE
Cosmos 1726 3.9 21:32:46 10° NW 21:35:46 23° W 21:37:13 18° WSW
Cosmos 1340 Rocket 4.4 21:33:07 10° NW 21:36:30 26° W 21:38:13 19° SW
STARLINK-1154 4.5 21:33:17 10° WNW 21:36:58 31° SW 21:37:07 31° SW
Thor Agena Rocket 4.1 21:31:58 10° N 21:37:09 55° WNW 21:40:50 19° SW
Timation 2 Rocket 4.2 21:31:12 10° NW 21:37:20 57° WSW 21:40:21 29° S
STARLINK-1353 3.4 21:33:56 10° WSW 21:37:52 89° SSE 21:41:50 10° ENE
Cosmos 1674 3.1 21:36:36 32° SW 21:38:04 56° WNW 21:41:50 10° N
STARLINK-1243 3.5 21:35:22 10° WNW 21:39:31 86° SSW 21:41:59 24° ESE
Cosmos 2228 3.3 21:35:51 10° NNW 21:40:01 55° W 21:41:35 34° SSW
STARLINK-1375 3.3 21:36:33 10° WSW 21:40:25 88° NW 21:44:19 10° ENE
STARLINK-1320 3.1 21:39:38 10° WSW 21:42:44 68° NNW 21:45:51 10° ENE
Cosmos 921 Rocket 2.9 21:41:18 38° S 21:42:55 79° ESE 21:47:20 10° NNE
STARLINK-1322 3.1 21:39:56 10° WSW 21:43:03 68° NNW 21:46:10 10° ENE
STARLINK-1324 3.1 21:40:19 10° WSW 21:43:25 68° NNW 21:46:33 10° ENE
STARLINK-1294 3.1 21:40:36 10° WSW 21:43:42 68° NNW 21:46:50 10° ENE
STARLINK-1261 3.1 21:40:58 10° WSW 21:44:05 67° NNW 21:47:12 10° ENE
STARLINK-1325 3.1 21:41:19 10° WSW 21:44:26 67° NNW 21:47:33 10° ENE
STARLINK-1236 3.5 21:40:20 10° WNW 21:44:30 82° SSW 21:46:46 26° ESE
STARLINK-1333 3.2 21:41:40 10° WSW 21:44:46 67° NNW 21:47:54 10° ENE
STARLINK-1334 3.2 21:42:00 10° WSW 21:45:07 67° NNW 21:48:14 10° ENE
Cosmos 220 Rocket 4.0 21:43:25 37° S 21:45:07 76° ESE 21:49:35 10° NNE
STARLINK-1326 3.2 21:42:21 10° WSW 21:45:27 66° NNW 21:48:34 10° ENE
STARLINK-1323 3.2 21:42:40 10° WSW 21:45:47 66° NNW 21:48:54 10° ENE
Cosmos 1980 Rocket 4.2 21:43:49 11° ESE 21:45:53 13° E 21:48:17 10° ENE
STARLINK-1349 3.2 21:43:00 10° WSW 21:46:06 66° NNW 21:49:13 10° ENE
STARLINK-1350 3.5 21:42:13 10° WSW 21:46:09 84° NNW 21:50:07 10° ENE
STARLINK-1336 3.2 21:43:20 10° WSW 21:46:27 66° NNW 21:49:34 10° ENE
STARLINK-1331 3.2 21:43:42 10° WSW 21:46:48 65° NNW 21:49:55 10° ENE
STARLINK-1344 3.2 21:44:01 10° WSW 21:47:08 65° NNW 21:50:14 10° ENE
STARLINK-1343 3.2 21:44:22 10° WSW 21:47:28 65° NNW 21:50:35 10° ENE
USA 215 3.3 21:41:07 10° ESE 21:47:41 81° NNE 21:54:15 10° NW
Lacrosse 4 Rocket 2.5 21:43:37 10° NNW 21:47:45 41° NE 21:50:42 17° ESE
STARLINK-1346 3.2 21:44:40 10° WSW 21:47:47 65° NNW 21:50:56 10° ENE
RESURS DK-1 3.1 21:45:05 19° SW 21:47:49 51° NW 21:51:53 10° NNE
STARLINK-1328 3.2 21:45:01 10° WSW 21:48:07 64° NNW 21:51:14 10° ENE
STARLINK-1354 3.2 21:45:23 10° WSW 21:48:29 64° NNW 21:51:36 10° ENE
STARLINK-1347 3.2 21:45:42 10° WSW 21:48:49 64° NNW 21:51:55 10° ENE
STARLINK-1357 3.2 21:46:04 10° WSW 21:49:11 64° NNW 21:52:17 10° ENE
STARLINK-1335 3.3 21:46:22 10° WSW 21:49:28 63° NNW 21:52:34 10° ENE
STARLINK-1327 3.3 21:46:45 10° W 21:49:51 63° NNW 21:52:58 10° ENE
Cosmos 1953 4.5 21:47:37 10° NW 21:50:11 17° W 21:51:59 13° WSW
Cosmos 1437 2.8 21:50:06 51° ESE 21:50:12 51° E 21:53:08 10° NNE
STARLINK-1340 3.3 21:47:06 10° W 21:50:12 63° NNW 21:53:18 10° ENE
Okean 1-7 Rocket 3.6 21:48:31 37° S 21:50:15 80° E 21:54:51 10° NNE
STARLINK-1352 3.5 21:46:25 10° WSW 21:50:23 80° NNW 21:54:20 10° ENE
STARLINK-1356 3.3 21:47:26 10° W 21:50:32 63° NNW 21:53:39 10° ENE
STARLINK-1345 3.3 21:47:46 10° W 21:50:52 62° NNW 21:53:58 10° ENE
STARLINK-1355 3.3 21:48:06 10° W 21:51:12 62° NNW 21:54:18 10° ENE
STARLINK-1321 3.3 21:48:25 10° W 21:51:31 62° NNW 21:54:38 10° ENE
STARLINK-1358 3.3 21:48:48 10° W 21:51:54 62° NNW 21:55:00 10° ENE
STARLINK-1332 3.3 21:49:06 10° W 21:52:12 61° NNW 21:55:18 10° ENE
STARLINK-1348 3.3 21:49:26 10° W 21:52:32 61° NNW 21:55:38 10° ENE
STARLINK-1330 3.3 21:49:47 10° W 21:52:53 61° NNW 21:55:59 10° ENE
STARLINK-1363 3.3 21:50:07 10° W 21:53:12 61° NNW 21:56:18 10° ENE
Cosmos 1809 Rocket 4.5 21:49:42 28° SSW 21:53:14 85° W 21:59:28 10° N
STARLINK-1337 3.3 21:50:28 10° W 21:53:33 61° NNW 21:56:40 10° ENE
STARLINK-1342 3.3 21:50:49 10° W 21:53:55 60° NNW 21:57:01 10° ENE
STARLINK-1364 3.4 21:51:10 10° W 21:54:15 60° NNW 21:57:22 10° ENE
STARLINK-1269 3.5 21:50:18 10° WNW 21:54:27 73° SSW 21:56:20 31° SE
STARLINK-1368 3.6 21:50:38 10° WSW 21:54:35 77° NNW 21:58:33 10° ENE
STARLINK-1376 3.4 21:51:30 10° W 21:54:35 60° NNW 21:57:41 10° ENE
STARLINK-1360 3.4 21:51:50 10° W 21:54:56 60° NNW 21:58:02 10° ENE
STARLINK-1361 3.4 21:52:10 10° W 21:55:15 60° NNW 21:58:21 10° ENE
STARLINK-1367 3.4 21:52:29 10° W 21:55:36 60° NNW 21:58:43 10° ENE
STARLINK-1366 3.4 21:52:51 10° W 21:55:57 59° NNW 21:59:02 10° ENE
Cosmos 1726 Rocket 4.1 21:52:06 10° NNW 21:56:16 46° W 21:57:49 32° SW
Meteor 1-24 Rocket 3.6 21:54:35 31° S 21:57:15 86° E 22:02:51 10° NNE
STARLINK-52 4.3 21:55:09 10° W 21:58:14 42° N 22:01:19 10° ENE
STARLINK-1369 3.6 21:54:51 10° WSW 21:58:48 74° NNW 22:02:46 10° ENE
Nadezhda 2 Rocket 4.5 21:55:31 28° SSW 21:58:57 81° W 22:05:11 10° N
Cosmos 1892 Rocket 3.7 21:57:13 34° SSW 21:59:00 69° W 22:03:22 10° N
STARLINK-1200 3.5 21:55:17 10° WNW 21:59:25 69° SSW 22:01:06 34° SE
ATLAS 3B R/B 3.9 21:55:44 10° WNW 22:01:17 27° WSW 22:04:04 21° SSW
STARLINK-1372 3.7 21:59:05 10° WSW 22:03:03 72° NNW 22:07:01 10° ENE
Helios 1A 2.9 22:01:44 40° S 22:03:10 79° WSW 22:07:23 10° NNW
Cosmos 2297 Rocket 2.1 21:57:38 10° NNW 22:03:19 81° WSW 22:06:15 30° SSE
STARLINK-1192 3.5 22:00:16 10° WNW 22:04:23 65° SSW 22:05:53 37° SE
SL-4 R/B 2.8 21:59:51 10° W 22:04:41 65° N 22:09:28 10° E
Cosmos 1455 3.9 22:01:50 10° NNE 22:04:58 25° ENE 22:06:47 17° ESE
Cosmos 2219 3.2 21:59:52 10° NNW 22:05:29 66° WSW 22:08:06 32° S
EO 1 Delta rocket 4.0 22:00:11 10° NNE 22:05:35 75° E 22:07:39 34° S
STARLINK-1378 3.7 22:01:57 10° WSW 22:05:50 69° NNW 22:09:45 10° ENE
SJ 16-02 1.4 22:01:37 10° NNW 22:06:05 74° ENE 22:08:01 33° SE
SL-4 R/B 3.2 22:07:36 15° WNW 22:07:36 15° WNW 22:08:21 10° NW
SeaSat 1 2.8 22:02:51 10° NNE 22:07:45 63° NW 22:11:04 20° SW
BREEZE-M DEB (TANK) 1.6 22:03:24 10° WSW 22:08:00 60° SSE 22:10:23 10° E
STARLINK-1379 3.7 22:05:19 10° WSW 22:09:11 67° NNW 22:13:04 10° ENE
Cosmos 1626 2.3 22:08:17 42° SW 22:09:20 65° WNW 22:13:03 10° N
STARLINK-1244 3.6 22:05:15 10° WNW 22:09:20 61° SSW 22:10:38 39° SSE
Cosmos 1656 3.8 22:06:51 32° S 22:09:24 61° ESE 22:14:55 10° NE
FALCON 9 DEB 4.2 22:08:09 10° W 22:11:29 46° N 22:14:49 10° ENE
STARLINK-1329 3.8 22:08:35 10° W 22:12:27 66° NNW 22:16:20 10° ENE
Nadezhda 1 Rocket 4.1 22:06:25 10° N 22:12:39 76° E 22:16:19 27° SSE
ATLAS CENTAUR R/B 3.9 22:10:21 10° W 22:13:29 20° NNW 22:16:30 10° NNE
STARLINK-1138 3.6 22:10:14 10° WNW 22:14:19 57° SSW 22:15:25 41° SSE
Cosmos 468 Rocket 4.3 22:12:28 32° SSE 22:14:28 50° ESE 22:19:25 10° NNE
Cosmos 2082 3.9 22:11:10 10° NNW 22:16:51 71° ENE 22:20:41 21° SE
Meteor 2-1 Rocket 4.4 22:11:18 10° N 22:16:51 68° ENE 22:20:00 27° SSE
STARLINK-1362 3.9 22:13:52 10° W 22:17:46 63° NNW 22:21:41 10° ENE
Cosmos 2292 4.0 22:14:38 10° N 22:17:49 82° W 22:18:08 68° SSW
STARLINK-1143 3.7 22:15:14 10° WNW 22:19:16 53° SSW 22:20:12 43° SSE
Cosmos 1937 Rocket 3.8 22:16:21 10° NNW 22:21:37 66° ENE 22:24:58 22° SE
STARLINK-1373 4.0 22:18:12 10° W 22:22:06 61° NNW 22:26:01 10° ENE
STARLINK-43 3.7 22:22:45 42° SE 22:22:45 42° SE 22:26:07 10° ENE
STARLINK-1241 3.8 22:20:14 10° WNW 22:24:15 49° SW 22:25:00 43° S
STARLINK-1390 4.0 22:21:08 10° W 22:24:58 60° NNW 22:28:49 10° ENE
Meteor 1-29 4.3 22:22:41 10° NE 22:25:37 27° E 22:26:13 25° ESE
STARLINK-60 4.1 22:24:03 10° WNW 22:27:07 44° N 22:30:13 10° E
Cosmos 2084 Rocket 4.2 22:22:56 10° NW 22:27:20 56° NE 22:31:43 10° ESE
Cosmos 1898 Rocket 3.5 22:23:22 10° NNW 22:28:44 84° WSW 22:31:27 30° SSE
STARLINK-1239 3.9 22:25:13 10° WNW 22:29:12 46° SW 22:29:46 43° S
Meteor 2-16 Rocket 4.4 22:25:55 29° SSW 22:29:16 80° W 22:35:25 10° N
STARLINK-1365 4.1 22:26:18 10° W 22:30:14 58° NNW 22:34:10 10° ENE
Cosmos 1697 Rocket 3.1 22:28:57 30° S 22:31:28 51° ESE 22:36:57 10° NE
YAOGAN 11 4.4 22:30:25 36° SSW 22:31:50 52° W 22:36:03 10° NNW
STARLINK-1240 3.9 22:30:12 10° WNW 22:34:09 43° SW 22:34:32 41° SSW
Cosmos 1356 Rocket 3.8 22:30:12 10° NNW 22:34:20 52° W 22:35:40 36° SSW
ERBS 2.1 22:32:18 10° WNW 22:35:36 67° SW 22:35:59 60° S
STARLINK-1216 4.0 22:35:14 10° WNW 22:39:07 40° SW 22:39:20 40° SSW
Cosmos 2227 Rocket 2.5 22:35:21 10° NW 22:40:50 50° WSW 22:43:18 30° SSW
Uosat 12 SS-18 rocket 4.0 22:36:44 10° NW 22:41:03 85° NE 22:43:56 22° SE
Cosmos 990 Rocket 4.1 22:36:36 10° NNW 22:41:49 64° WSW 22:44:13 31° S
Cosmos 1626 Rocket 3.6 22:41:01 36° SSW 22:42:42 69° W 22:47:05 10° N
Cosmos-2242 3.7 22:38:43 10° N 22:42:51 46° ENE 22:45:09 23° SE
STARLINK-1237 4.1 22:40:12 10° WNW 22:44:03 37° SW 22:44:05 37° SW
Resurs 1-4 Rocket 4.0 22:40:13 10° NE 22:44:06 20° E 22:47:38 11° SE
STARLINK-1338 4.2 22:41:18 10° W 22:45:00 52° N 22:48:42 10° ENE
Landsat 4 4.5 22:44:49 10° N 22:48:21 43° WNW 22:49:44 29° WSW
Cosmos 858 Rocket 4.5 22:43:04 10° NNW 22:48:23 79° WSW 22:51:14 28° SSE
STARLINK-1202 4.3 22:45:13 10° WNW 22:48:53 35° SW 22:48:53 35° SW
STARLINK 1040 3.1 22:50:20 44° E 22:50:20 44° E 22:52:15 10° ENE
STARLINK-55 4.0 22:50:15 32° ESE 22:50:15 32° ESE 22:52:41 10° ENE
STARLINK-1452 3.7 22:49:15 10° WNW 22:51:09 32° NNE 22:53:08 10° E
STARLINK-1444 3.8 22:49:20 10° WNW 22:51:17 33° NNE 22:53:18 10° E
STARLINK-1203 4.3 22:48:19 10° WNW 22:52:01 33° SW 22:52:01 33° SW
SL-08 ROCKET BODY 4.4 22:49:43 28° SSW 22:52:54 71° W 22:58:47 10° N
STARLINK-1436 (VISORSAT) 3.7 22:51:05 10° WNW 22:53:01 33° NNE 22:55:01 10° E
STARLINK-1450 3.7 22:51:11 10° WNW 22:53:07 33° NNE 22:55:08 10° E
STARLINK-1398 3.7 22:51:17 10° WNW 22:53:13 33° NNE 22:55:13 10° E
STARLINK-1392 3.7 22:51:17 10° WNW 22:53:13 33° NNE 22:55:14 10° E
STARLINK-1399 3.7 22:51:17 10° WNW 22:53:13 33° NNE 22:55:14 10° E
STARLINK-1393 3.7 22:51:18 10° WNW 22:53:14 33° NNE 22:55:15 10° E
STARLINK-1415 3.7 22:51:19 10° WNW 22:53:14 33° NNE 22:55:15 10° E
STARLINK-1395 3.7 22:51:18 10° WNW 22:53:14 33° NNE 22:55:15 10° E
STARLINK-1394 3.7 22:51:19 10° WNW 22:53:15 33° NNE 22:55:16 10° E
STARLINK-1414 3.7 22:51:19 10° WNW 22:53:15 33° NNE 22:55:16 10° E
STARLINK-1396 3.7 22:51:19 10° WNW 22:53:15 33° NNE 22:55:16 10° E
STARLINK-1397 3.7 22:51:19 10° WNW 22:53:15 33° NNE 22:55:16 10° E
STARLINK-1416 3.7 22:51:20 10° WNW 22:53:15 33° NNE 22:55:17 10° E
STARLINK-1404 3.7 22:51:20 10° WNW 22:53:16 33° NNE 22:55:17 10° E
STARLINK-1401 3.7 22:51:20 10° WNW 22:53:16 33° NNE 22:55:17 10° E
STARLINK-1419 3.7 22:51:20 10° WNW 22:53:16 33° NNE 22:55:17 10° E
STARLINK-1408 3.7 22:51:21 10° WNW 22:53:16 33° NNE 22:55:18 10° E
STARLINK-1437 3.7 22:51:21 10° WNW 22:53:17 33° NNE 22:55:18 10° E
STARLINK-1453 3.7 22:51:21 10° WNW 22:53:17 33° NNE 22:55:18 10° E
STARLINK-1417 3.7 22:51:22 10° WNW 22:53:18 33° NNE 22:55:19 10° E
STARLINK-1402 3.7 22:51:22 10° WNW 22:53:18 33° NNE 22:55:19 10° E
STARLINK-1420 3.7 22:51:22 10° WNW 22:53:19 33° NNE 22:55:19 10° E
STARLINK-1458 3.7 22:51:23 10° WNW 22:53:20 33° NNE 22:55:20 10° E
STARLINK-1413 3.7 22:51:23 10° WNW 22:53:20 33° NNE 22:55:20 10° E
STARLINK-1406 3.7 22:51:23 10° WNW 22:53:20 33° NNE 22:55:21 10° E
STARLINK-1460 3.7 22:51:24 10° WNW 22:53:20 33° NNE 22:55:21 10° E
STARLINK-1422 3.7 22:51:24 10° WNW 22:53:20 33° NNE 22:55:21 10° E
STARLINK-1440 3.7 22:51:25 10° WNW 22:53:21 33° NNE 22:55:22 10° E
STARLINK-1445 3.7 22:51:25 10° WNW 22:53:21 33° NNE 22:55:22 10° E
STARLINK-1443 3.7 22:51:26 10° WNW 22:53:22 33° NNE 22:55:23 10° E
STARLINK-1446 3.7 22:51:27 10° WNW 22:53:23 33° NNE 22:55:24 10° E
STARLINK-1454 3.7 22:51:27 10° WNW 22:53:23 33° NNE 22:55:24 10° E
STARLINK-1457 3.7 22:51:28 10° WNW 22:53:24 33° NNE 22:55:25 10° E
STARLINK-1456 3.7 22:51:28 10° WNW 22:53:24 33° NNE 22:55:25 10° E
STARLINK-1451 3.7 22:51:28 10° WNW 22:53:24 33° NNE 22:55:25 10° E
STARLINK-1447 3.7 22:51:29 10° WNW 22:53:25 33° NNE 22:55:26 10° E
STARLINK-1455 3.7 22:51:29 10° WNW 22:53:25 33° NNE 22:55:26 10° E
STARLINK-1442 3.7 22:51:29 10° WNW 22:53:26 33° NNE 22:55:27 10° E
STARLINK-1449 3.7 22:51:29 10° WNW 22:53:26 33° NNE 22:55:27 10° E
STARLINK-1448 3.7 22:51:30 10° WNW 22:53:26 33° NNE 22:55:27 10° E
STARLINK-1441 3.7 22:51:30 10° WNW 22:53:26 33° NNE 22:55:27 10° E
STARLINK-1405 3.7 22:51:31 10° WNW 22:53:27 33° NNE 22:55:28 10° E
STARLINK-1423 3.7 22:51:31 10° WNW 22:53:27 33° NNE 22:55:28 10° E
STARLINK-1421 3.7 22:51:31 10° WNW 22:53:28 33° NNE 22:55:29 10° E
STARLINK-1410 3.7 22:51:32 10° WNW 22:53:28 33° NNE 22:55:29 10° E
STARLINK-1407 3.7 22:51:32 10° WNW 22:53:28 33° NNE 22:55:29 10° E
STARLINK-1400 3.7 22:51:32 10° WNW 22:53:28 33° NNE 22:55:29 10° E
STARLINK-1439 3.7 22:51:33 10° WNW 22:53:29 33° NNE 22:55:30 10° E
STARLINK-1418 3.7 22:51:34 10° WNW 22:53:30 33° NNE 22:55:31 10° E
STARLINK-1434 3.7 22:51:34 10° WNW 22:53:30 33° NNE 22:55:31 10° E
STARLINK-1351 3.7 22:51:34 10° WNW 22:53:30 33° NNE 22:55:31 10° E
STARLINK-1409 3.7 22:51:34 10° WNW 22:53:30 33° NNE 22:55:31 10° E
STARLINK-1370 3.7 22:51:35 10° WNW 22:53:31 33° NNE 22:55:31 10° E
STARLINK-1433 3.7 22:51:36 10° WNW 22:53:32 33° NNE 22:55:33 10° E
STARLINK-1403 3.7 22:51:36 10° WNW 22:53:32 33° NNE 22:55:33 10° E
STARLINK-1411 3.7 22:51:38 10° WNW 22:53:34 33° NNE 22:55:35 10° E
STARLINK-1438 3.7 22:51:38 10° WNW 22:53:34 33° NNE 22:55:35 10° E
STARLINK-1412 3.7 22:51:38 10° WNW 22:53:34 33° NNE 22:55:35 10° E
STARLINK-1371 4.3 22:50:42 10° W 22:54:28 50° N 22:58:14 10° ENE
Cosmos 1745 Rocket 4.1 22:51:38 27° SSW 22:55:07 68° WNW 23:01:15 10° N
SL-16 R/B 4.3 22:55:20 10° SE 22:58:25 15° E 23:01:30 10° ENE
STARLINK-1341 4.3 22:54:45 10° W 22:58:30 49° N 23:02:16 10° ENE
STARLINK-29 4.2 22:56:04 10° WNW 22:59:10 43° N 23:02:15 10° E
STARLINK-1312 4.4 22:59:45 28° SE 22:59:45 28° SE 23:02:47 10° E
FALCON 9 R/B 3.8 22:58:56 24° S 22:59:43 24° S 23:09:49 10° ESE
Cosmos 841 Rocket 3.8 22:57:40 29° S 23:00:12 57° ESE 23:05:19 10° NNE
STARLINK-26 3.5 23:00:46 42° SSE 23:00:55 43° SE 23:04:12 10° ENE
STARLINK-28 3.3 23:01:08 44° SE 23:01:08 44° SE 23:04:09 10° ENE
Meteor 1-21 Rocket 4.2 22:58:08 29° S 23:01:14 90° NW 23:07:04 10° NNE
Cosmos 1570 Rocket 4.1 22:58:45 30° S 23:01:23 66° ESE 23:06:38 10° NNE
STARLINK-1374 4.4 22:58:41 10° W 23:02:26 49° N 23:06:11 10° ENE
CZ-4C R/B 2.1 22:59:36 25° SW 23:02:44 86° NW 23:08:55 10° NE
STARLINK-1339 4.4 23:02:41 10° W 23:06:25 48° N 23:10:09 10° ENE
Helios 1B rocket 2.7 23:03:25 10° N 23:07:30 61° WNW 23:09:18 31° SW
Cosmos 2298 Rocket 4.4 23:02:44 10° NNW 23:08:02 62° ENE 23:12:53 12° SE
Cosmos 1812 Rocket 4.1 23:04:05 10° NNW 23:08:19 44° W 23:09:59 30° SW
Cosmos 1763 Rocket 3.5 23:05:56 27° SW 23:08:40 71° WNW 23:13:45 10° NNE
STARLINK-80 4.0 23:11:04 34° SSE 23:11:35 36° SE 23:15:07 10° ENE
CZ-2D R/B 3.3 23:07:03 10° NNE 23:11:42 32° E 23:15:12 16° SSE
STARLINK-1377 4.5 23:09:03 10° W 23:12:53 48° N 23:16:43 10° ENE
STARLINK-33 3.0 23:14:04 47° SSE 23:14:05 47° SSE 23:17:01 10° ENE
PSLV R/B 4.0 23:10:39 10° N 23:15:00 53° WNW 23:17:07 27° SW
Meteor 2-10 Rocket 3.7 23:10:58 10° NNW 23:15:59 54° W 23:18:26 28° SSW
Cosmos 1825 Rocket 3.5 23:14:48 32° S 23:16:48 84° E 23:21:11 10° N
STARLINK-1353 4.5 23:13:12 10° W 23:17:02 48° N 23:20:52 10° ENE
Spot 1 4.4 23:14:22 25° SSE 23:17:20 85° WSW 23:22:29 10° NNW
STARLINK-1320 4.3 23:15:53 10° WNW 23:18:51 39° N 23:21:49 10° ENE
Cosmos 2208 Rocket 4.1 23:16:05 28° SSW 23:18:57 77° ESE 23:24:20 10° NNE
STARLINK-1322 4.3 23:16:11 10° WNW 23:19:09 39° N 23:22:07 10° ENE
STARLINK-1375 4.5 23:15:29 10° W 23:19:14 47° N 23:22:59 10° ENE
STARLINK-1324 4.3 23:16:34 10° WNW 23:19:32 39° N 23:22:30 10° ENE
STARLINK-1294 4.3 23:16:51 10° WNW 23:19:49 39° N 23:22:49 10° ENE
STARLINK-1261 4.3 23:17:14 10° WNW 23:20:12 39° N 23:23:10 10° ENE
Cosmos 1602 Rocket 4.5 23:18:22 24° SW 23:20:23 37° WNW 23:24:27 10° N
STARLINK-1325 4.3 23:17:35 10° WNW 23:20:33 39° N 23:23:31 10° ENE
STARLINK-1333 4.3 23:17:55 10° WNW 23:20:54 39° N 23:23:52 10° ENE
STARLINK-1334 4.3 23:18:15 10° WNW 23:21:14 39° N 23:24:12 10° ENE
STARLINK-1326 4.3 23:18:36 10° WNW 23:21:34 39° N 23:24:33 10° ENE
STARLINK-1323 4.3 23:18:56 10° WNW 23:21:54 39° N 23:24:52 10° ENE
STARLINK-1349 4.3 23:19:16 10° WNW 23:22:13 39° N 23:25:12 10° ENE
STARLINK-1336 4.3 23:19:36 10° WNW 23:22:34 39° N 23:25:33 10° ENE
STARLINK-1331 4.3 23:19:58 10° WNW 23:22:56 39° N 23:25:54 10° ENE
USA 81 4.1 23:20:20 27° SSW 23:23:14 68° W 23:28:32 10° N
STARLINK-1344 4.3 23:20:17 10° WNW 23:23:15 39° N 23:26:13 10° ENE
STARLINK-1343 4.3 23:20:38 10° WNW 23:23:36 39° N 23:26:34 10° ENE
STARLINK-1346 4.4 23:20:55 10° WNW 23:23:55 39° N 23:26:56 10° ENE
STARLINK-1328 4.3 23:21:16 10° WNW 23:24:14 39° N 23:27:13 10° ENE
STARLINK-1354 4.3 23:21:39 10° WNW 23:24:37 39° N 23:27:35 10° ENE
Timation 1 Rocket 4.3 23:18:38 10° NNW 23:24:40 89° ENE 23:30:38 10° SSE
STARLINK-1347 4.3 23:21:58 10° WNW 23:24:56 39° N 23:27:54 10° ENE
STARLINK-1357 4.3 23:22:21 10° WNW 23:25:18 39° N 23:28:17 10° ENE
STARLINK-1335 4.3 23:22:37 10° WNW 23:25:35 39° N 23:28:33 10° ENE
STARLINK-1297 3.7 23:25:17 36° S 23:25:50 39° SE 23:29:06 10° ENE
STARLINK-1327 4.3 23:23:00 10° WNW 23:25:59 39° N 23:28:57 10° ENE
Cosmos 2181 Rocket 4.1 23:19:35 10° N 23:26:04 81° W 23:30:38 21° S
Lacrosse 4 Rocket 2.5 23:22:38 10° NW 23:26:16 27° WSW 23:26:59 26° SW
STARLINK-1340 4.3 23:23:21 10° WNW 23:26:19 39° N 23:29:18 10° ENE
STARLINK-1356 4.3 23:23:42 10° WNW 23:26:40 39° N 23:29:39 10° ENE
STARLINK-1345 4.3 23:24:02 10° WNW 23:27:00 39° N 23:29:58 10° ENE
STARLINK-1355 4.3 23:24:21 10° WNW 23:27:19 39° N 23:30:18 10° ENE
STARLINK-1321 4.3 23:24:41 10° WNW 23:27:39 39° N 23:30:38 10° ENE
STARLINK-1358 4.3 23:25:04 10° WNW 23:28:02 39° N 23:31:01 10° ENE
STARLINK-1332 4.3 23:25:22 10° WNW 23:28:20 39° N 23:31:18 10° ENE
STARLINK-1348 4.3 23:25:42 10° WNW 23:28:40 39° N 23:31:39 10° ENE
Cosmos 1980 Rocket 2.2 23:25:34 26° SSW 23:28:52 76° ESE 23:34:33 10° NNE
STARLINK-1330 4.3 23:26:03 10° WNW 23:29:01 39° N 23:31:59 10° ENE
STARLINK-1363 4.3 23:26:22 10° WNW 23:29:20 39° N 23:32:18 10° ENE
STARLINK-66 2.9 23:28:48 43° SW 23:29:39 65° SSE 23:32:50 10° ENE
STARLINK-1337 4.3 23:26:43 10° WNW 23:29:42 39° N 23:32:40 10° ENE
STARLINK-1342 4.3 23:27:05 10° WNW 23:30:04 39° N 23:33:02 10° ENE
STARLINK-1364 4.3 23:27:26 10° WNW 23:30:23 39° N 23:33:22 10° ENE
STARLINK-1376 4.3 23:27:45 10° WNW 23:30:44 39° N 23:33:42 10° ENE
STARLINK-1360 4.3 23:28:05 10° WNW 23:31:04 39° N 23:34:03 10° ENE
USA 215 3.7 23:26:26 17° SSE 23:31:04 39° SW 23:37:10 10° WNW
BREEZE-M R/B 2.9 23:25:24 10° W 23:31:14 86° N 23:34:20 10° E
STARLINK-1361 4.3 23:28:26 10° WNW 23:31:24 39° N 23:34:23 10° ENE
STARLINK-1367 4.3 23:28:44 10° WNW 23:31:44 40° N 23:34:45 10° ENE
STARLINK-1366 4.3 23:29:07 10° WNW 23:32:05 39° N 23:35:04 10° ENE
STARLINK-1268 3.1 23:32:03 42° S 23:32:30 47° SSE 23:35:29 10° ENE
Cosmos 1328 3.8 23:30:46 31° SSW 23:32:33 73° W 23:36:33 10° N
Meteor 1-11 4.4 23:29:35 22° S 23:33:15 68° E 23:38:48 10° NNE
STARLINK-52 3.8 23:31:33 10° WNW 23:34:43 53° NNE 23:37:52 10° E
STARLINK-58 3.6 23:34:48 35° SSE 23:35:12 37° SE 23:38:11 10° ENE
STARLINK-1316 3.1 23:35:31 42° S 23:36:07 50° SSE 23:39:10 10° ENE
STARLINK-1257 3.1 23:36:22 41° SSW 23:37:00 51° SSE 23:40:04 10° ENE
Cosmos 2369 4.0 23:33:19 20° SW 23:37:09 61° WNW 23:42:48 10° NNE
STARLINK-1256 3.1 23:37:15 41° SSW 23:37:56 52° SSE 23:40:58 10° ENE
STARLINK-1213 3.0 23:38:08 41° SSW 23:38:51 52° SSE 23:41:54 10° ENE
STARLINK-1263 3.0 23:39:00 41° SSW 23:39:44 53° SSE 23:42:48 10° ENE
DELTA 2 DEB (DPAF) 4.1 23:37:39 24° S 23:40:13 67° WSW 23:44:43 10° NNW
STARLINK-1317 3.5 23:38:54 31° SSW 23:40:26 56° SSE 23:44:11 10° ENE
Cosmos 1455 3.4 23:37:22 10° NNW 23:40:34 27° W 23:41:41 23° WSW
STARLINK-1259 3.0 23:39:53 40° SSW 23:40:39 54° SSE 23:43:42 10° ENE
STARLINK-75 2.9 23:39:39 35° SW 23:40:51 71° SSE 23:44:05 10° ENE
STARLINK-1265 3.0 23:40:14 39° SSW 23:41:03 55° SSE 23:44:10 10° ENE
STARLINK-1307 3.5 23:39:57 33° SSW 23:41:12 52° SSE 23:44:44 10° ENE
STARLINK-1285 3.0 23:40:44 40° SSW 23:41:32 55° SSE 23:44:37 10° ENE
Cosmos 1703 3.7 23:40:18 28° SW 23:42:07 51° WNW 23:45:58 10° N
STARLINK-1296 3.0 23:42:28 39° SSW 23:43:20 57° SSE 23:46:25 10° ENE
STARLINK-1290 3.4 23:42:30 33° SSW 23:43:48 54° SSE 23:47:18 10° ENE
Cosmos 1709 Rocket 4.4 23:40:00 21° SW 23:43:57 53° WNW 23:50:01 10° N
SJ 16-02 3.3 23:41:49 10° WNW 23:44:04 14° W 23:44:59 13° WSW
STARLINK-1260 2.9 23:43:15 38° SSW 23:44:09 58° SSE 23:47:14 10° ENE
SL-4 R/B 2.3 23:39:46 10° WNW 23:44:38 81° SSW 23:49:21 10° ESE
SL-16 R/B 2.5 23:39:08 13° SSE 23:44:44 90° W 23:50:59 10° NNW
Cosmos 2263 Rocket 2.2 23:39:22 10° NNW 23:45:02 83° ENE 23:50:37 10° SSE
STARLINK-1318 2.9 23:44:12 38° SSW 23:45:08 59° SSE 23:48:12 10° ENE
STARLINK-1275 2.9 23:45:04 37° SSW 23:46:02 60° SSE 23:49:08 10° ENE
Cosmos 2297 Rocket 4.0 23:43:39 10° WNW 23:46:27 14° W 23:48:02 13° WSW
STARLINK-1309 2.9 23:45:57 37° SW 23:46:56 60° SSE 23:50:02 10° ENE
Cosmos 540 Rocket 3.6 23:44:01 23° SW 23:47:14 66° WNW 23:52:21 10° NNE
STARLINK-1282 2.9 23:46:49 36° SW 23:47:50 61° SSE 23:50:56 10° ENE
STARLINK-1272 3.3 23:46:29 31° SW 23:47:56 59° SSE 23:51:26 10° ENE
FALCON 9 DEB 4.0 23:45:31 10° WNW 23:48:54 51° NNE 23:52:18 10° E
STARLINK-1313 2.8 23:47:45 34° SW 23:48:56 69° SSE 23:52:03 10° ENE
STARLINK-22 2.9 23:48:00 33° SW 23:49:16 67° SSE 23:52:28 10° ENE
STARLINK-1279 2.8 23:48:40 33° SW 23:49:51 70° SSE 23:52:58 10° ENE
STARLINK-1298 2.8 23:49:22 34° SW 23:50:30 64° SSE 23:53:36 10° ENE
STARLINK-1293 2.8 23:50:15 34° SW 23:51:24 65° SSE 23:54:31 10° ENE
MOZ.5/SAFIR/RUBIN 5/SL-8 3.8 23:49:23 21° S 23:52:23 63° WSW 23:57:01 10° NNW
STARLINK-1255 2.8 23:52:00 32° SW 23:53:14 67° SSE 23:56:21 10° ENE
